STARLINK-3289, 50173

Orbit data source: Space-Track

STARLINK-3289, 50173 is a payload satellite owned by SpaceX/Seattle (US) in LEO that was launched on Sat, 18 Dec 2021 UTC via an FALCON 9 launch vehicle from the Air Force Western Test Range (AFWTR). Payload-class satellites include a variety of spacecraft equipped with specific instruments for various scientific and technological missions. These include communications satellites like Starlink; space stations such as the ISS; scientific satellites like the Hubble; Earth observation satellites from companies like Planet Labs, Umbra, and HawkEye 360; GPS; miniature CubeSats for education and research; and military/defense satellites.

Loading next visibility...
Identifier
50173, 2021-125T
Orbit
LEO
Country
Flag of USUS
Related business
Manufacturer
SpaceX/Seattle
Mission
Operational Commercial Communications
Bus & Motor
STARLINK, Unknown motor
Mass
290 kg wet, ~270 kg dry
Launch date (UTC)
2021-12-18 (5 years ago)
Launch vehicle
FALCON 9
Launch site
Air Force Western Test Range (AFWTR)
Object type
Payload
Rocket body
Debris
Shape & HBR
Box + 1 Pan, 10.1 m
Radar Cross Section
13.562 m², Large (>1 m²)

Expand to show TLE details & history
Last TLE update: 21 hours ago

TLE from 21 hours ago
0 STARLINK-3289
1 50173U 21125T   26169.30917439  .00015600  00000-0  86409-3 0  9999
2 50173  53.2134 144.9889 0001349  43.7089 316.4012 15.13997285251978
Epoch: 2026-06-18T07:25Z
TLE epoch observation values (Epoch: 2026-06-18T07:25:12.667Z)
Latitude
-0.00001°
Longitude
127.13176°
Altitude
524.249 km
Speed
7.603 km/s
True Right ascension
09h 39m 57s
True Declination
0° 00' 00"
Sunlit
Object was in daylight at epoch
Visualization orbit readout
Latitude
Unknown
Longitude
Unknown
Altitude
Unknown
Speed
Unknown
Apparent Right ascension
Unknown
Apparent Declination
Unknown
Sunlit
N/A
Visualization observer readout
Local Sidereal Time
15:35:49
Azimuth
Unknown
Elevation
Unknown
Doppler factor
Unknown
Orbital elements
Apogee altitude
525.202 km
Perigee altitude
523.339 km
Semi-major axis
6,902.408 km
Eccentricity
0.00013
Inclination
53.2134°
RAAN
144.9889°
Arg. of periapsis
43.7089°
True anomaly
316.39054°
Mean anomaly
316.4012°
Eccentric anomaly
316.39587°
Mean motion
3.78479 °/min
Orbital period
95.12 mins
BSTAR
0.00086409
Loading maneuver chart data...
Computing Atmospheric mass density...

Documentation

Showing up to 5 results
|